Temperature
18 17 17 17 17 17 17 17 16 16 16 16 16 16 15 15 15 15 15 15 15 15 15 15 15 15 15 15 15 15 15 15 15 15 14 14 14 14 14 14 14 14 14
17 17 17 17 17 17 17 16 16 16 16 16 16 15 15 15 15 15 15 15 15 14 14 15 15 14 14 14 14 14 14 14 14 14 14 14 14 14 14 14 14 14 14
17 17 17 17 17 17 17 16 16 16 16 16 15 15 15 15 15 15 15 14 14 14 14 14 14 14 14 14 14 14 14 14 14 14 14 14 14 14 14 14 14 14 14
17 17 17 17 17 16 16 16 16 16 16 15 15 15 15 15 15 15 14 14 14 14 14 14 14 14 14 14 14 14 14 14 14 14 14 14 14 14 13 13 13 13 13
17 17 17 17 17 16 16 16 16 16 16 15 15 15 15 15 15 14 14 14 14 14 14 14 14 14 14 14 14 14 14 14 14 13 14 14 13 13 13 13 13 13 13
17 17 17 17 17 16 16 16 16 16 15 15 15 15 15 15 14 14 14 14 14 14 14 14 14 14 14 14 14 14 14 13 13 13 13 13 13 13 13 13 13 13 13
17 17 17 16 16 16 16 16 16 15 15 15 15 15 15 14 14 14 14 14 14 14 14 13 13 13 13 13 13 13 13 13 13 13 13 13 13 13 13 13 13 13 13
17 17 17 16 16 16 16 16 15 15 15 15 15 14 14 14 14 14 14 14 14 14 13 13 13 13 13 13 13 13 13 13 13 13 13 13 13 13 13 13 13 12 12
17 17 16 16 16 16 16 15 15 15 15 15 14 14 14 14 14 14 14 13 13 13 13 13 13 13 13 13 13 13 13 13 13 13 13 13 13 12 13 13 13 12 12
17 17 16 16 16 16 16 15 15 15 15 15 14 14 14 14 14 13 13 13 13 13 13 13 13 13 13 13 13 13 13 12 12 12 12 12 12 12 12 12 12 12 12
16 16 16 16 16 16 15 15 15 15 15 14 14 14 14 13 13 13 13 13 13 13 13 13 13 13 12 12 12 12 12 12 12 12 12 12 12 12 12 12 12 12 12
16 16 16 16 16 15 15 15 15 14 14 14 14 14 13 13 13 13 13 13 13 13 13 12 12 12 12 12 12 12 12 12 12 12 12 12 12 12 12 12 11 12 11
16 16 15 15 15 15 15 15 14 14 14 14 13 13 13 13 13 13 12 12 12 12 12 12 12 12 12 12 12 12 11 11 11 11 11 11 11 11 11 11 11 11 11
15 15 15 15 14 14 14 14 14 14 13 13 13 13 13 13 12 12 12 12 12 12 12 12 12 11 11 11 11 11 11 11 11 11 11 11 11 11 11 11 11 11 11
14 14 14 14 14 14 14 14 13 13 13 13 13 12 12 12 12 12 12 12 12 11 11 11 11 11 11 11 11 11 11 11 11 10 10 10 11 11 11 11 11 11 10
14 14 14 14 13 13 13 13 13 13 13 13 12 12 12 12 12 12 11 11 11 11 11 11 11 11 10 10 10 10 10 10 10 10 10 10 10 10 10 10 10 10 10
14 14 13 13 13 13 13 13 13 12 12 12 12 12 11 11 11 11 11 11 11 10 10 10 10 10 10 10 10 10 10 10 10 10 10 10 10 10 10 10 10 10 10
13 13 13 13 13 13 12 12 12 12 12 11 11 11 11 11 11 10 10 10 10 10 10 10 10 10 10 10 10 9 9 10 10 10 9 9 10 9 9 9 9 9 9
13 13 13 13 12 12 12 12 11 11 11 11 11 10 10 10 10 10 10 10 9 9 9 9 9 9 9 9 9 9 9 9 9 9 9 9 9 9 9 9 9 9 9
13 13 12 12 12 11 11 11 11 11 10 10 10 10 10 10 10 9 9 9 9 9 9 9 9 9 9 9 9 9 9 9 9 9 9 9 9 8 8 8 8 8 9
12 12 12 12 11 11 11 11 10 10 10 10 10 10 10 9 9 9 9 8 8 8 8 8 8 8 8 8 8 8 8 8 8 8 8 8 8 8 8 8 8 8 8
12 11 11 11 11 10 10 10 10 10 10 9 9 9 9 9 8 8 8 8 8 8 7 7 8 8 8 8 8 8 8 7 8 8 8 7 7 7 7 7 7 7 7
11 11 11 11 10 10 10 10 10 9 9 9 9 9 8 8 8 8 7 7 7 7 7 7 7 7 7 7 7 7 7 7 7 7 7 7 7 7 7 7 7 7 7
10 10 10 10 10 9 9 9 9 9 9 9 8 8 8 8 8 7 7 7 6 6 6 6 6 7 7 7 7 7 7 7 6 7 6 6 6 6 6 6 6 6 6
10 10 10 10 9 9 9 9 9 9 8 8 8 8 7 7 7 7 6 6 6 6 6 6 6 6 6 6 6 6 6 6 6 6 6 6 6 6 6 6 5 5 6
9 9 9 9 9 9 8 8 8 8 8 8 7 7 7 7 6 6 6 6 6 6 6 6 6 6 6 6 6 6 6 6 6 6 6 5 5 5 5 5 5 5 5
Wind_Speed
5 5 5 6 5 4 4 4 4 3 3 2 2 2 1 1 1 2 3 4 3 4 4 3 3 2 2 2 3 3 3 2 2 3 3 3 3 2 1 1 1 1 1
5 5 5 5 5 4 4 4 4 3 3 3 2 2 2 1 1 1 2 3 3 3 4 3 2 2 2 3 2 2 2 1 1 2 2 2 3 3 2 1 1 1 1
10 8 6 5 5 5 5 5 4 4 3 3 3 2 2 2 2 1 1 1 2 2 3 3 3 3 3 2 1 2 3 1 1 1 3 3 2 2 3 2 2 2 2
8 7 7 6 6 5 4 4 4 4 3 4 4 4 3 2 2 1 1 0 1 2 2 3 3 3 2 2 2 2 2 3 1 1 0 2 3 2 1 2 2 2 2
9 9 8 8 7 6 5 4 4 3 3 3 4 4 2 2 1 1 1 1 1 0 1 2 2 2 2 2 2 2 2 2 2 1 1 1 1 2 2 1 2 2 2
8 8 7 6 5 5 4 4 4 3 3 4 4 4 4 3 3 2 2 0 0 1 0 1 1 2 2 2 2 2 3 2 2 2 2 2 2 2 2 2 1 1 2
8 6 6 6 6 6 6 5 5 4 3 4 4 4 4 4 4 4 4 2 1 1 2 1 1 1 1 2 2 2 2 2 2 2 1 2 2 2 2 3 2 1 2
7 7 7 7 7 7 6 5 5 4 4 4 4 3 3 3 3 3 3 3 3 3 2 2 1 1 1 1 2 2 2 2 2 2 2 1 1 1 2 3 3 1 1
8 8 6 6 7 6 6 7 6 4 4 4 3 3 3 3 3 3 3 2 2 2 2 2 2 1 1 1 1 1 2 1 1 2 1 1 1 0 1 2 3 4 2
7 7 6 6 5 5 5 5 5 5 4 3 3 3 2 2 2 2 3 3 2 2 2 2 1 1 1 1 1 1 1 1 1 1 2 1 0 0 0 1 1 2 3
7 7 6 5 4 4 3 4 3 3 3 3 2 1 1 1 1 2 2 3 2 2 3 3 2 1 1 0 1 1 1 1 1 1 2 2 1 0 0 1 1 1 2
6 6 5 4 4 4 4 4 3 3 3 3 3 2 2 1 1 1 1 1 2 2 2 3 2 2 1 1 2 1 1 1 1 1 1 2 1 1 0 1 1 2 2
6 5 4 4 3 3 3 3 3 3 3 3 3 2 2 2 1 1 1 1 1 1 1 2 2 2 2 2 2 2 2 1 1 2 2 2 1 1 1 1 1 1 1
6 5 4 3 3 3 3 2 1 2 3 3 3 2 1 1 2 2 1 1 1 1 1 1 2 2 2 2 1 2 2 1 1 1 2 2 2 3 3 2 2 2 2
5 5 4 3 2 2 2 2 2 2 2 3 3 2 2 1 1 1 1 0 1 1 1 1 1 1 1 1 1 2 2 2 1 1 1 2 2 2 2 2 3 3 3
5 4 4 3 2 2 2 2 2 2 3 3 2 1 1 1 1 1 1 1 0 0 1 1 1 1 1 1 2 3 2 2 2 1 1 2 2 2 3 3 3 5 4
4 4 4 4 3 3 4 3 2 2 3 3 2 2 2 1 1 1 1 1 0 1 1 1 1 1 2 1 1 2 2 2 2 2 2 1 1 1 1 2 2 3 4
4 4 3 3 2 3 3 3 3 3 3 2 2 1 1 1 1 1 1 0 0 1 1 1 1 1 1 0 1 1 2 2 2 2 3 2 1 1 1 1 1 2 3
5 4 4 3 2 2 3 3 3 3 3 2 1 1 2 1 1 1 0 0 0 0 0 1 2 1 2 1 0 1 1 1 1 1 1 1 1 1 1 1 1 1 3
4 4 3 3 2 2 3 4 3 3 3 2 2 1 1 2 2 1 1 0 0 0 0 0 0 1 1 1 0 1 2 1 0 0 1 1 1 1 2 2 2 2 3
3 3 4 3 2 3 4 4 3 3 3 2 2 1 1 1 2 1 1 1 1 1 0 1 1 1 1 1 1 1 1 2 1 1 1 1 2 2 2 2 2 3 2
3 3 3 3 2 3 4 3 2 2 2 2 2 1 0 1 0 1 1 0 1 0 1 1 2 2 2 2 1 1 1 2 2 2 2 1 2 2 1 2 2 2 1
2 2 4 3 2 2 4 4 3 2 2 2 1 1 0 0 1 1 1 1 1 1 1 1 2 2 2 2 2 1 1 1 1 1 1 1 1 1 1 1 1 0 0
2 2 3 3 2 2 2 3 2 2 3 2 1 1 1 0 0 1 1 1 2 2 2 2 2 3 2 2 2 1 1 1 1 1 1 1 1 1 1 1 1 0 1
1 2 3 4 3 2 2 1 2 3 3 2 1 0 0 0 1 1 2 2 3 4 3 3 3 3 3 4 3 2 1 1 2 0 1 1 1 1 1 1 1 1 1
2 2 3 3 3 3 2 1 2 3 3 2 1 0 0 0 0 1 2 3 3 3 4 3 3 3 3 3 2 2 1 1 1 2 1 1 1 1 1 1 1 1 1
Wind_Direction
190 176 161 151 139 132 127 125 123 137 128 116 111 106 101 84 72 75 92 101 103 109 113 101 98 95 101 114 112 106 91 73 82 79 37 12 16 26 12 37 70 74 106
168 183 176 155 152 156 146 140 139 145 148 143 146 155 152 142 143 92 84 108 118 123 129 122 115 110 101 91 89 96 103 76 75 112 97 19 356 355 7 9 43 28 71
178 184 182 170 157 160 165 165 166 155 154 140 116 93 68 47 34 18 32 40 117 124 130 135 138 131 123 128 124 122 123 136 9 92 134 140 211 306 337 356 14 16 44
180 180 178 171 173 181 174 168 165 154 152 141 133 136 142 160 215 215 199 360 123 121 128 134 140 144 140 150 169 142 136 137 159 351 66 154 156 149 307 336 353 9 17
176 178 181 178 178 175 171 168 158 153 158 154 151 153 155 183 183 171 115 59 14 121 135 149 144 153 160 173 176 155 146 143 161 179 166 107 93 120 146 225 316 347 337
181 185 186 174 171 169 164 156 156 164 165 165 164 165 170 173 148 162 153 186 299 305 316 167 160 172 177 182 185 172 158 157 158 165 168 168 162 178 162 180 218 275 301
178 178 178 174 172 171 169 162 159 172 181 177 180 185 186 176 174 178 178 184 200 239 256 208 174 194 202 193 170 158 166 158 158 170 191 197 192 167 160 157 180 213 288
174 178 180 178 178 179 174 168 169 177 187 192 196 192 184 179 189 187 175 184 201 215 215 187 170 185 203 195 164 161 176 158 166 176 172 173 222 179 173 167 159 155 312
177 179 175 172 175 176 178 176 175 183 191 193 190 192 195 181 184 186 182 188 204 203 189 182 170 152 143 145 158 172 190 170 180 184 169 180 242 197 192 176 165 160 188
176 176 174 177 180 182 182 176 176 183 189 182 184 187 201 198 187 173 181 188 203 193 159 157 159 155 159 149 147 160 180 153 194 177 149 173 251 57 133 163 169 162 171
169 170 170 171 167 160 157 164 173 173 174 177 168 142 168 184 165 170 197 200 201 190 175 175 169 170 166 136 135 173 148 157 208 213 168 210 199 158 245 150 141 153 154
157 154 154 147 146 150 153 157 161 163 173 162 142 141 140 135 148 186 230 212 196 204 197 182 171 176 178 167 149 161 152 171 206 232 206 224 197 167 194 150 161 184 179
131 123 124 130 138 147 147 146 157 166 158 142 143 139 132 133 158 196 245 222 191 198 194 172 174 187 192 179 182 177 177 187 222 226 219 232 188 204 200 174 190 192 177
127 123 130 139 139 136 137 139 134 148 142 135 137 143 166 178 184 191 204 208 175 174 183 181 176 179 173 166 176 175 172 179 213 234 224 224 207 215 199 192 194 183 160
120 125 135 137 135 131 143 147 144 133 131 134 141 172 181 159 156 166 197 197 162 175 162 149 163 180 179 186 167 174 171 168 184 239 259 248 232 236 206 201 192 178 176
152 149 137 128 138 161 165 152 144 161 137 126 144 159 137 115 125 170 162 138 126 169 131 146 172 197 258 255 180 172 177 175 181 217 266 267 261 252 230 217 188 180 186
158 155 161 168 171 174 171 154 156 138 133 130 120 112 108 90 81 80 87 126 171 132 136 169 169 207 259 244 161 154 164 173 196 213 228 261 268 230 237 240 227 212 203
163 170 174 180 181 172 158 149 130 119 123 128 130 132 123 106 81 72 62 100 168 170 197 212 217 215 273 221 178 171 162 169 204 216 211 211 257 254 193 207 234 243 244
171 175 176 173 165 161 155 132 130 125 117 127 146 167 159 146 122 109 113 27 56 42 245 214 212 228 275 282 197 140 166 179 220 223 197 196 217 253 199 169 234 272 281
162 155 140 118 124 158 138 129 141 145 160 177 186 187 167 161 170 191 202 168 99 29 348 349 253 213 260 303 273 149 154 158 226 299 282 249 259 253 204 187 198 241 264
148 136 126 136 166 163 137 135 147 181 199 181 155 139 176 188 179 167 163 131 115 54 6 332 308 294 286 309 303 196 166 181 201 237 277 281 278 275 240 196 204 236 237
130 133 134 148 164 155 143 144 182 210 164 135 137 161 188 243 161 153 183 182 166 208 279 315 320 308 300 308 293 239 212 185 185 218 242 268 283 268 238 208 240 261 235
143 144 140 140 148 159 154 166 203 167 135 125 135 166 156 286 195 189 209 240 228 221 259 264 276 297 306 306 307 280 263 232 196 221 245 283 309 292 275 266 256 244 186
141 133 129 138 162 174 165 173 164 140 135 141 157 161 129 35 350 233 216 226 231 232 241 247 258 277 293 290 290 277 276 281 298 301 311 323 329 345 340 348 342 322 190
159 149 154 166 184 173 161 154 139 128 121 119 123 120 107 207 333 310 264 243 239 232 232 237 235 243 263 268 264 244 234 234 237 195 51 25 10 4 350 351 331 311 300
160 164 167 171 181 172 171 169 153 142 135 127 129 155 82 296 283 325 331 319 304 291 277 264 254 249 255 271 272 268 267 243 167 124 151 231 242 238 254 261 283 288 267
Height
1520 1522 1522 1524 1525 1525 1526 1526 1526 1527 1527 1527 1528 1528 1528 1529 1529 1529 1529 1529 1529 1529 1529 1529 1529 1529 1529 1529 1530 1530 1530 1530 1531 1531 1531 1532 1532 1532 1532 1532 1532 1531 1531
1519 1520 1521 1522 1523 1524 1525 1525 1525 1526 1526 1526 1527 1527 1528 1528 1528 1528 1528 1528 1528 1528 1528 1528 1528 1528 1528 1528 1528 1529 1529 1529 1530 1530 1530 1531 1533 1532 1532 1532 1531 1531 1531
1516 1518 1520 1521 1522 1523 1523 1524 1525 1525 1525 1526 1526 1526 1527 1527 1527 1527 1527 1527 1527 1527 1527 1527 1527 1527 1527 1527 1528 1528 1528 1528 1529 1529 1530 1530 1530 1530 1531 1531 1531 1531 1530
1514 1516 1518 1519 1520 1521 1522 1523 1524 1524 1525 1525 1525 1525 1525 1525 1525 1525 1525 1525 1526 1526 1526 1526 1526 1526 1526 1526 1527 1527 1527 1528 1528 1528 1528 1529 1529 1529 1530 1530 1530 1530 1530
1512 1514 1516 1517 1518 1520 1521 1522 1523 1523 1524 1524 1524 1524 1524 1524 1524 1524 1524 1524 1524 1524 1525 1525 1525 1525 1525 1525 1525 1525 1526 1526 1527 1527 1527 1527 1528 1528 1528 1528 1529 1529 1529
1510 1512 1514 1516 1517 1518 1519 1520 1521 1521 1522 1522 1522 1522 1522 1522 1522 1522 1522 1523 1523 1523 1523 1523 1523 1523 1523 1523 1524 1524 1524 1524 1525 1525 1525 1525 1526 1526 1526 1526 1526 1527 1528
1508 1510 1512 1514 1515 1516 1517 1518 1519 1520 1520 1521 1521 1521 1521 1521 1521 1521 1521 1521 1522 1521 1521 1522 1522 1522 1522 1522 1522 1522 1523 1523 1523 1523 1523 1523 1524 1524 1524 1525 1525 1525 1526
1506 1508 1510 1511 1513 1514 1516 1517 1517 1518 1519 1519 1519 1519 1520 1519 1519 1520 1520 1520 1520 1520 1520 1520 1520 1520 1521 1520 1520 1521 1521 1521 1521 1521 1521 1521 1521 1522 1522 1523 1523 1523 1524
1505 1507 1509 1510 1511 1512 1513 1514 1515 1516 1517 1517 1517 1518 1518 1518 1518 1518 1518 1518 1518 1519 1519 1519 1519 1519 1519 1519 1519 1519 1519 1519 1519 1519 1519 1519 1519 1520 1520 1520 1521 1522 1521
1504 1505 1507 1509 1510 1511 1512 1513 1514 1515 1515 1515 1516 1516 1516 1517 1517 1517 1517 1517 1517 1517 1517 1517 1517 1517 1517 1517 1517 1517 1517 1516 1516 1516 1516 1516 1517 1517 1517 1518 1518 1519 1519
1502 1504 1506 1507 1508 1510 1511 1511 1512 1513 1513 1514 1514 1514 1515 1515 1515 1515 1515 1515 1515 1515 1515 1515 1515 1515 1515 1515 1514 1514 1514 1514 1514 1514 1514 1514 1514 1514 1515 1515 1516 1516 1517
1501 1503 1504 1506 1507 1508 1509 1509 1510 1510 1511 1512 1512 1513 1513 1513 1513 1513 1513 1513 1513 1513 1513 1513 1512 1512 1513 1513 1512 1512 1512 1511 1511 1511 1511 1511 1511 1511 1512 1513 1513 1513 1514
1501 1502 1503 1504 1505 1506 1507 1508 1508 1509 1509 1510 1510 1510 1510 1510 1510 1510 1511 1511 1510 1510 1510 1510 1510 1510 1510 1510 1509 1509 1509 1509 1509 1509 1508 1508 1508 1508 1509 1509 1510 1510 1511
1499 1501 1502 1503 1504 1505 1505 1506 1507 1507 1508 1508 1508 1508 1508 1508 1508 1508 1508 1508 1508 1507 1507 1508 1507 1507 1507 1507 1507 1506 1506 1506 1506 1506 1506 1506 1505 1506 1506 1506 1507 1507 1508
1499 1500 1501 1502 1502 1503 1504 1504 1505 1505 1506 1506 1506 1506 1506 1506 1506 1506 1506 1505 1505 1505 1505 1505 1504 1504 1504 1504 1504 1504 1503 1503 1503 1503 1503 1503 1503 1502 1503 1503 1503 1504 1505
1498 1499 1499 1500 1501 1502 1502 1503 1503 1503 1504 1504 1504 1504 1504 1504 1503 1503 1503 1502 1502 1502 1501 1501 1501 1501 1501 1501 1501 1501 1500 1500 1500 1500 1500 1499 1499 1499 1500 1500 1500 1501 1502
1496 1497 1498 1498 1499 1500 1500 1500 1501 1501 1502 1502 1502 1502 1502 1501 1501 1500 1500 1500 1499 1499 1498 1498 1498 1498 1497 1497 1497 1497 1497 1496 1496 1496 1496 1496 1496 1496 1496 1496 1497 1498 1498
1494 1495 1496 1496 1497 1497 1498 1498 1499 1499 1499 1499 1499 1499 1499 1499 1498 1498 1497 1497 1496 1496 1495 1495 1494 1494 1494 1494 1494 1494 1494 1493 1493 1493 1492 1492 1492 1492 1493 1493 1493 1494 1494
1492 1492 1493 1494 1494 1495 1495 1496 1496 1497 1497 1497 1497 1497 1497 1496 1495 1495 1494 1494 1493 1493 1492 1492 1492 1491 1491 1491 1491 1490 1490 1490 1489 1489 1489 1489 1489 1489 1489 1489 1489 1490 1490
1490 1490 1491 1491 1492 1492 1493 1493 1493 1494 1494 1494 1494 1494 1494 1493 1493 1492 1492 1491 1491 1490 1490 1489 1489 1488 1488 1488 1487 1487 1487 1486 1486 1486 1486 1486 1486 1486 1486 1486 1486 1486 1486
1488 1488 1489 1489 1489 1490 1490 1490 1491 1491 1492 1492 1492 1492 1491 1491 1490 1490 1489 1489 1488 1488 1487 1486 1486 1485 1485 1485 1484 1484 1483 1483 1483 1483 1482 1483 1483 1483 1483 1483 1483 1483 1483
1486 1486 1486 1487 1487 1488 1488 1488 1488 1489 1489 1489 1489 1489 1489 1488 1488 1487 1486 1486 1485 1485 1484 1483 1483 1482 1482 1482 1481 1481 1481 1480 1480 1479 1479 1480 1480 1479 1479 1479 1479 1480 1479
1484 1484 1484 1484 1485 1486 1486 1486 1486 1486 1486 1486 1486 1486 1486 1485 1485 1484 1483 1483 1482 1482 1481 1481 1480 1479 1479 1479 1478 1478 1478 1478 1477 1477 1477 1477 1477 1476 1476 1476 1476 1476 1475
1482 1482 1481 1482 1483 1483 1484 1484 1484 1484 1484 1484 1483 1483 1483 1482 1482 1481 1481 1480 1479 1479 1478 1478 1477 1476 1476 1475 1475 1475 1475 1475 1475 1474 1474 1474 1474 1473 1473 1473 1472 1472 1472
1480 1480 1480 1480 1480 1481 1481 1481 1481 1481 1481 1481 1481 1480 1480 1479 1479 1478 1478 1477 1477 1477 1476 1475 1475 1474 1473 1473 1472 1472 1472 1472 1472 1471 1471 1471 1470 1470 1469 1469 1469 1469 1469
1478 1478 1478 1478 1478 1478 1479 1479 1479 1478 1478 1478 1478 1477 1477 1476 1476 1475 1474 1474 1474 1474 1473 1473 1472 1471 1470 1470 1469 1469 1469 1469 1469 1468 1468 1467 1467 1466 1466 1466 1465 1465 1465